[[{"header":{"parameterUnit":"m.s-1","parameterCategory":1,"la1":30.2991,"la2":30.254,"lo1":-89.0895,"lo2":-89.0444,"dy":0.0017,"dx":0.0017,"nx":28,"ny":28,"refTime":"2024-06-13T09:00:00:Z","depth":0,"parameterNumber":2,"parameterNumberName":"U-component_of_WINDS"},"data":[0,0,0,0,0,0,0,0,0,0,0,0,0,0,0,0,0,0,0,0,0,0,0,0,0,0,0,0,0,0,0,0,0,0,0,0,0,0,0,0,0,0,0,0,0,0,0,0,0,0,0,0,0,0,0,0,0,0,-1.8808,-1.8808,0,-1.8799,-1.8799,-1.8799,-1.8738,-1.8737,-1.8736,-1.8734,-1.8726,-1.8727,-1.8728,0,0,0,0,0,0,0,0,0,0,0,0,0,-1.8773,-1.8774,-1.8808,-1.8808,-1.8807,-1.8799,-1.8799,-1.8799,-1.8739,-1.8737,-1.8735,-1.8733,-1.8726,-1.8727,-1.8728,0,0,0,0,0,0,0,0,0,0,0,0,0,-1.8779,-1.8774,-1.8808,-1.8777,-1.8774,-1.8799,-1.8799,-1.8799,-1.8739,-1.8737,-1.8735,-1.8733,-1.8725,-1.8727,-1.8728,-1.8783,0,0,-1.8734,-1.8734,0,0,0,0,0,0,0,0,-1.8778,-1.878,-1.8781,-1.8779,-1.8776,-1.8767,-1.8783,-1.8793,-1.874,-1.8752,-1.8734,-1.8732,-1.8742,-1.8742,-1.8745,-1.8783,-1.8782,-1.8734,-1.8735,-1.8736,-1.8736,0,0,0,0,0,0,0,-1.8778,-1.878,-1.8804,-1.8781,-1.8778,-1.8763,-1.8761,-1.8785,-1.8759,-1.8751,-1.8747,-1.8746,-1.874,-1.8744,-1.8744,-1.8782,-1.8734,-1.8735,-1.8736,-1.8737,-1.8865,-1.8867,0,0,0,0,0,0,-1.8782,-1.878,-1.8804,-1.8804,-1.8772,-1.8766,-1.8764,-1.8772,-1.8759,-1.8755,-1.8748,-1.8744,-1.8742,-1.8742,-1.8744,-1.8808,-1.8736,-1.8737,-1.8738,-1.8863,-1.8865,-1.8868,0,0,0,0,0,0,-1.8782,-1.8785,-1.8805,-1.8791,-1.8792,-1.8768,-1.8779,-1.8773,-1.8777,-1.8757,-1.8752,-1.8757,-1.874,-1.8741,-1.8774,-1.8807,-1.8738,-1.874,-1.886,-1.8863,-1.8867,-1.8936,0,0,0,0,0,0,-1.8781,-1.8785,-1.8806,-1.8792,-1.8793,-1.8835,-1.8781,-1.8775,-1.878,-1.8774,-1.8764,-1.876,-1.8738,-1.8772,-1.8776,-1.8808,-1.8741,-1.8857,-1.8861,-1.8866,-1.8931,-1.8942,-1.8951,0,0,0,0,0,-1.878,-1.8826,-1.8807,-1.881,-1.8818,-1.8837,-1.8838,-1.8812,-1.8783,-1.8804,-1.8791,-1.876,-1.8802,-1.8775,-1.8779,-1.8813,-1.8855,-1.886,-1.8865,-1.8927,-1.894,-1.8951,0,0,0,0,0,0,-1.8844,-1.8823,-1.8802,-1.8845,-1.8843,-1.8827,-1.8852,-1.8827,-1.8834,-1.8828,-1.8795,-1.8793,-1.8831,-1.8824,-1.8795,-1.8865,-1.8823,-1.883,-1.8868,-1.8881,-1.8891,-1.8892,-1.8742,0,0,0,0,0,-1.8863,-1.888,-1.8861,-1.89,-1.89,-1.8877,-1.8884,-1.8864,-1.8861,-1.886,-1.8849,-1.8848,-1.8861,-1.887,-1.888,-1.8929,-1.8926,-1.8954,-1.8964,-1.8972,-1.8979,-1.9005,-1.9017,-1.8886,-1.8885,-1.8885,0,0,-1.8903,-1.8894,-1.8907,-1.8913,-1.8909,-1.8928,-1.8877,-1.8898,-1.8912,-1.8863,-1.8894,-1.8886,-1.8882,-1.8923,-1.894,-1.8919,-1.9014,-1.8979,-1.8986,-1.8988,-1.9012,-1.9024,-1.9035,-1.8889,-1.8888,-1.8888,0,0,-1.8986,-1.898,-1.9013,-1.901,-1.9005,-1.8989,-1.8996,-1.8984,-1.8977,-1.9006,-1.8971,-1.8986,-1.9008,-1.9008,-1.901,-1.9091,-1.9064,-1.9095,-1.9149,-1.9175,-1.9185,-1.9194,-1.9225,-1.9236,-1.9102,-1.9102,-1.9102,0,-1.9037,-1.9063,-1.9033,-1.9057,-1.9061,-1.9017,-1.905,-1.9049,-1.9048,-1.9052,-1.9028,-1.9055,-1.9049,-1.909,-1.911,-1.9113,-1.9122,-1.9098,-1.9186,-1.9195,-1.9203,-1.9232,-1.9243,-1.9106,-1.9105,-1.9105,-1.9105,0,-1.9126,-1.9145,-1.9172,-1.9172,-1.9179,-1.9208,-1.9182,-1.9192,-1.9171,-1.9157,-1.9189,-1.918,-1.9188,-1.9196,-1.9175,-1.9234,-1.9221,-1.9192,-1.9149,-1.922,-1.9247,-1.9257,-1.9112,-1.911,-1.9109,-1.9108,0,0,-1.9252,-1.9234,-1.9244,-1.9244,-1.9235,-1.9249,-1.9275,-1.9283,-1.9293,-1.9293,-1.9315,-1.9335,-1.9308,-1.9311,-1.9289,-1.9312,-1.9379,-1.928,-1.9279,-1.93,-1.9444,-1.9468,-1.9481,-1.936,-1.9362,-1.9363,-1.9445,0,-1.9333,-1.9377,-1.935,-1.9399,-1.9416,-1.9374,-1.9397,-1.9394,-1.9382,-1.9395,-1.938,-1.9396,-1.9358,-1.936,-1.938,-1.9367,-1.9408,-1.936,-1.9381,-1.9383,-1.9386,-1.9495,-1.952,-1.9598,-1.9455,-1.9457,-1.9458,0,-1.9434,-1.9438,-1.9489,-1.9476,-1.9482,-1.9504,-1.9509,-1.9521,-1.9517,-1.9506,-1.9509,-1.9482,-1.9508,-1.9464,-1.9499,-1.9467,-1.9474,-1.9469,-1.9471,-1.9474,-1.9426,-1.9503,-1.9622,-1.9635,-1.9474,-1.9473,-1.9472,0,-1.9523,-1.9541,-1.9574,-1.9574,-1.956,-1.9576,-1.9571,-1.9564,-1.957,-1.9575,-1.9579,-1.9586,-1.959,-1.9597,-1.9572,-1.9543,-1.9611,-1.9565,-1.9604,-1.9605,-1.9623,-1.9623,-1.9747,-1.9624,-1.9623,-1.9623,-1.9623,0,-1.9617,-1.9651,-1.9614,-1.9634,-1.967,-1.9638,-1.9674,-1.9664,-1.9659,-1.9677,-1.9639,-1.9657,-1.9623,-1.9638,-1.9619,-1.9652,-1.9653,-1.9646,-1.9641,-1.9651,-1.9652,-1.9657,-1.9652,-1.9626,-1.9626,-1.9625,-1.9624,0,-1.9724,-1.97,-1.9734,-1.9717,-1.9713,-1.9741,-1.9726,-1.9745,-1.9729,-1.9752,-1.9756,-1.9732,-1.9747,-1.9722,-1.9735,-1.9722,-1.9768,-1.9753,-1.977,-1.9766,-1.9808,-1.9805,-1.9942,-1.9959,-1.9822,-1.9823,-1.9825,0,-1.9787,-1.9812,-1.9797,-1.9806,-1.9803,-1.9819,-1.9825,-1.9794,-1.9802,-1.9798,-1.9817,-1.9829,-1.9837,-1.9863,-1.9847,-1.9856,-1.9843,-1.989,-1.9844,-1.9854,-1.9846,-1.9846,-1.9849,-1.9901,-1.9902,-1.9903,-1.9905,0,-1.9903,-1.989,-1.99,-1.9906,-1.9915,-1.9918,-1.9919,-1.9929,-1.9896,-1.9907,-1.9921,-1.9928,-1.994,-1.9952,-1.9957,-1.9952,-1.9924,-1.9919,-1.9929,-1.994,-1.9949,-1.9947,-1.9798,-1.9916,-1.9915,-1.9914,-1.9914,-1.9913,-1.9991,-2.0011,-2.0004,-2.0017,-2.0014,-2.0015,-2.0032,-2.0018,-2.0029,-2.0037,-2.0017,-2.0037,-2.0032,-2.0035,-2.0033,-2.0048,-2.0028,-2.0042,-2.0046,-2.005,-2.0058,-1.9945,-2.0049,-2.0048,-2.0048,-2.0048,-2.0047,0,-2.0106,-2.0099,-2.0111,-2.0113,-2.0124,-2.0094,-2.0093,-2.0104,-2.0121,-2.0118,-2.0127,-2.0144,-2.0156,-2.014,-2.0149,-2.0164,-2.0152,-2.0168,-2.0168,-2.0168,-2.0074,-2.0066,-2.0178,-2.0178,-2.0178,-2.0178,-2.0178,-2.0178,-2.0168,-2.0201,-2.0187,-2.0217,-2.021,-2.0229,-2.0231,-2.0232,-2.023,-2.025,-2.026,-2.0249,-2.0241,-2.0249,-2.0259,-2.0254,-2.026,-2.0282,-2.0273,-2.0187,-2.0174,-2.0162,-2.0154,-2.0283,-2.0283,-2.0364,-2.0365,-2.0366]},{"header":{"parameterUnit":"m.s-1","parameterCategory":1,"la1":30.2991,"la2":30.254,"lo1":-89.0895,"lo2":-89.0444,"dy":0.0017,"dx":0.0017,"nx":28,"ny":28,"refTime":"2024-06-13T09:00:00:Z","depth":0,"parameterNumber":3,"parameterNumberName":"V-component_of_WINDS"},"data":[0,0,0,0,0,0,0,0,0,0,0,0,0,0,0,0,0,0,0,0,0,0,0,0,0,0,0,0,0,0,0,0,0,0,0,0,0,0,0,0,0,0,0,0,0,0,0,0,0,0,0,0,0,0,0,0,0,0,-2.0097,-2.0098,0,-2.0139,-2.014,-2.014,-2.0137,-2.0136,-2.0135,-2.0135,-2.0176,-2.0178,-2.0179,0,0,0,0,0,0,0,0,0,0,0,0,0,-2.0013,-2.0014,-2.0097,-2.0098,-2.0098,-2.0139,-2.014,-2.014,-2.0137,-2.0136,-2.0135,-2.0135,-2.0175,-2.0177,-2.0179,0,0,0,0,0,0,0,0,0,0,0,0,0,-2.0052,-2.0015,-2.0097,-2.0102,-2.0103,-2.0139,-2.014,-2.014,-2.0137,-2.0136,-2.0135,-2.0134,-2.0175,-2.0177,-2.018,-2.0214,0,0,-2.0187,-2.0188,0,0,0,0,0,0,0,0,-2.0049,-2.0055,-2.0101,-2.0101,-2.0102,-2.0132,-2.0125,-2.0165,-2.0137,-2.0124,-2.0135,-2.0134,-2.0162,-2.0165,-2.0175,-2.0216,-2.0217,-2.0187,-2.0189,-2.019,-2.0191,0,0,0,0,0,0,0,-2.0047,-2.0053,-2.0114,-2.0101,-2.0102,-2.0101,-2.0105,-2.0132,-2.0148,-2.0125,-2.0125,-2.013,-2.0162,-2.0173,-2.0176,-2.0218,-2.0187,-2.019,-2.0191,-2.0192,-2.0289,-2.029,0,0,0,0,0,0,-2.0043,-2.0051,-2.0113,-2.0115,-2.0073,-2.0103,-2.0108,-2.0123,-2.0147,-2.015,-2.0131,-2.013,-2.0169,-2.0173,-2.0178,-2.022,-2.019,-2.0192,-2.0194,-2.0288,-2.0289,-2.029,0,0,0,0,0,0,-2.0041,-2.0049,-2.0111,-2.0083,-2.0091,-2.0106,-2.0123,-2.0125,-2.0135,-2.0152,-2.0154,-2.0139,-2.0168,-2.0174,-2.0205,-2.0221,-2.0194,-2.0196,-2.0287,-2.0288,-2.029,-2.0304,0,0,0,0,0,0,-2.0039,-2.0048,-2.0062,-2.0083,-2.0092,-2.0138,-2.0124,-2.0126,-2.014,-2.0139,-2.016,-2.0163,-2.0168,-2.0201,-2.0207,-2.0224,-2.0198,-2.0285,-2.0287,-2.0289,-2.0302,-2.0306,-2.0309,0,0,0,0,0,-2.0036,-2.0064,-2.0063,-2.007,-2.011,-2.0139,-2.0144,-2.0151,-2.0141,-2.0155,-2.0165,-2.0162,-2.0218,-2.0204,-2.0211,-2.0229,-2.0284,-2.0287,-2.0289,-2.0301,-2.0305,-2.0309,0,0,0,0,0,0,-2.0043,-2.0067,-2.0066,-2.0101,-2.0118,-2.0139,-2.0156,-2.0155,-2.0175,-2.0173,-2.0179,-2.0184,-2.0216,-2.0225,-2.021,-2.0263,-2.025,-2.0254,-2.0256,-2.0261,-2.0264,-2.0262,-2.02,0,0,0,0,0,-2.0049,-2.0072,-2.0091,-2.012,-2.0129,-2.0141,-2.0154,-2.0158,-2.0175,-2.0182,-2.0195,-2.0212,-2.0233,-2.0247,-2.0268,-2.0303,-2.0308,-2.0319,-2.0322,-2.0325,-2.0329,-2.0348,-2.0353,-2.0298,-2.0298,-2.0298,0,0,-2.0062,-2.0077,-2.0091,-2.0122,-2.0136,-2.0159,-2.0147,-2.0172,-2.0189,-2.0186,-2.0217,-2.0226,-2.0245,-2.0279,-2.0294,-2.0288,-2.0345,-2.0328,-2.033,-2.0332,-2.0351,-2.0356,-2.0361,-2.03,-2.0299,-2.0299,0,0,-2.0096,-2.011,-2.0136,-2.015,-2.0171,-2.0179,-2.0185,-2.0206,-2.0212,-2.0243,-2.0241,-2.0261,-2.0298,-2.0312,-2.0324,-2.0363,-2.036,-2.0369,-2.0387,-2.0406,-2.0411,-2.0415,-2.0429,-2.0435,-2.0372,-2.0372,-2.0372,0,-2.0109,-2.0144,-2.015,-2.0175,-2.0189,-2.0188,-2.0214,-2.0227,-2.0254,-2.0263,-2.0255,-2.0302,-2.0314,-2.0351,-2.0361,-2.037,-2.0377,-2.0367,-2.041,-2.0414,-2.0418,-2.0432,-2.0437,-2.0373,-2.0373,-2.0373,-2.0373,0,-2.0158,-2.0183,-2.0201,-2.0228,-2.0244,-2.0269,-2.0279,-2.0294,-2.0295,-2.0304,-2.0335,-2.035,-2.0374,-2.0382,-2.0384,-2.042,-2.0415,-2.0408,-2.0395,-2.0424,-2.0437,-2.0442,-2.0375,-2.0374,-2.0374,-2.0374,0,0,-2.02,-2.0229,-2.0236,-2.0248,-2.0271,-2.029,-2.0315,-2.0339,-2.0352,-2.0369,-2.0391,-2.0422,-2.0416,-2.0429,-2.0432,-2.0449,-2.048,-2.044,-2.0441,-2.0448,-2.052,-2.0526,-2.0532,-2.0478,-2.0479,-2.0479,-2.0519,0,-2.0237,-2.0284,-2.0289,-2.033,-2.0353,-2.0351,-2.0373,-2.0389,-2.0397,-2.0417,-2.0426,-2.0448,-2.0438,-2.0446,-2.0463,-2.0472,-2.0494,-2.0469,-2.0498,-2.0499,-2.0495,-2.0539,-2.0545,-2.0582,-2.0524,-2.0525,-2.0526,0,-2.0288,-2.0308,-2.0351,-2.0371,-2.0381,-2.04,-2.0423,-2.0442,-2.0459,-2.0464,-2.0479,-2.048,-2.0505,-2.049,-2.0525,-2.0508,-2.052,-2.0526,-2.0528,-2.0532,-2.0515,-2.0545,-2.0593,-2.0599,-2.0534,-2.0533,-2.0532,0,-2.0315,-2.0352,-2.0383,-2.0393,-2.0417,-2.0431,-2.0441,-2.0458,-2.0472,-2.0491,-2.0501,-2.0522,-2.0534,-2.055,-2.0556,-2.0545,-2.0592,-2.0577,-2.0596,-2.0596,-2.0608,-2.0607,-2.066,-2.0613,-2.0613,-2.0613,-2.0613,0,-2.0357,-2.0384,-2.0396,-2.0415,-2.0445,-2.0451,-2.048,-2.0489,-2.0504,-2.0525,-2.0524,-2.0543,-2.0549,-2.0569,-2.0574,-2.0603,-2.0608,-2.0613,-2.0614,-2.0613,-2.0613,-2.0622,-2.062,-2.0614,-2.0614,-2.0614,-2.0613,0,-2.0393,-2.0402,-2.0436,-2.0456,-2.0461,-2.0482,-2.0499,-2.0517,-2.0524,-2.055,-2.0556,-2.0568,-2.0592,-2.0599,-2.0627,-2.063,-2.0664,-2.0663,-2.0659,-2.0659,-2.0679,-2.0678,-2.074,-2.0749,-2.0696,-2.0696,-2.0697,0,-2.042,-2.044,-2.0462,-2.0477,-2.0488,-2.051,-2.0524,-2.0531,-2.0545,-2.0567,-2.0583,-2.0606,-2.0625,-2.0663,-2.0673,-2.0695,-2.0694,-2.0715,-2.0697,-2.0697,-2.0696,-2.0695,-2.0697,-2.0718,-2.0719,-2.0719,-2.072,0,-2.0467,-2.047,-2.0492,-2.0515,-2.0532,-2.055,-2.0567,-2.0579,-2.0587,-2.0604,-2.0628,-2.0643,-2.0672,-2.0695,-2.0717,-2.0727,-2.0725,-2.0725,-2.0731,-2.0731,-2.0729,-2.0731,-2.0669,-2.0724,-2.0723,-2.0723,-2.0723,-2.0723,-2.05,-2.0518,-2.0537,-2.0561,-2.0574,-2.0591,-2.0609,-2.0619,-2.0639,-2.0664,-2.0666,-2.0692,-2.0709,-2.0738,-2.0749,-2.0769,-2.0763,-2.0772,-2.0774,-2.0776,-2.0778,-2.0724,-2.0773,-2.0773,-2.0773,-2.0773,-2.0773,0,-2.0548,-2.056,-2.0581,-2.0606,-2.0625,-2.0621,-2.064,-2.0656,-2.0679,-2.0695,-2.0714,-2.0742,-2.0764,-2.0777,-2.0799,-2.0813,-2.0812,-2.0818,-2.0818,-2.082,-2.0782,-2.0775,-2.0818,-2.0818,-2.0818,-2.0818,-2.0818,-2.0818,-2.0575,-2.0607,-2.0612,-2.065,-2.0661,-2.0688,-2.0699,-2.0714,-2.0727,-2.0758,-2.0777,-2.0785,-2.0799,-2.0823,-2.0843,-2.0846,-2.0854,-2.0861,-2.0864,-2.0828,-2.0823,-2.0819,-2.0812,-2.0863,-2.0863,-2.0901,-2.0901,-2.0901]}]]